Showing default

SNAP-3 EDDIE, 40972

Orbit data source: Space-Track

SNAP-3 EDDIE, 40972 is a payload satellite owned by SMDC (US) in LEO that was launched on Thu, 08 Oct 2015 UTC via an ATLAS V 401 launch vehicle from the Air Force Western Test Range (AFWTR). Payload-class satellites include a variety of spacecraft equipped with specific instruments for various scientific and technological missions. These include communications satellites like Starlink; space stations such as the ISS; scientific satellites like the Hubble; Earth observation satellites from companies like Planet Labs, Umbra, and HawkEye 360; GPS; miniature CubeSats for education and research; and military/defense satellites.

Loading next visibility...
Identifier
40972, 2015-058J
Orbit
LEO
Last TLE update
13 hours ago
Origin
Manufacturer
Duocomm Miltec
Mission
Operational Defense Communications
Bus & Motor
CUBESAT 3U, Unknown motor
Mass
5.3 kg wet, 4.5 kg dry
Launch date (UTC)
2015-10-08 (10 years ago)
Launch vehicle
ATLAS V 401
Launch site
Air Force Western Test Range (AFWTR)
Object type
Payload
Rocket body
Debris
Shape & HBR
Box + 8 Pan, 0.5 m
Radar Cross Section
0.085 m², Medium (>0.1 m² and < 1m²)

Expand to show TLE details & history

TLE from 13 hours ago
0 SNAP-3 EDDIE
1 40972U 15058J   25186.41053667  .00017135  00000-0  67838-3 0  9997
2 40972  64.7555 173.3081 0085834 189.5439 170.4063 15.22168623 65712
Epoch: 2025-07-05T09:51Z
TLE epoch observation values (Epoch: 2025-07-05T09:51:10.368Z)
Latitude
-0.00001°
Longitude
101.86592°
Altitude
559.561 km
Speed
7.55 km/s
True Right ascension
11h 33m 13s
True Declination
0° 00' 00"
Sunlit
Object was in daylight at epoch
Visualization orbit readout
Latitude
-14.40766°
Longitude
-73.04658°
Altitude
445.585 km
Speed
7.677 km/s
Apparent Right ascension
23h 37m 30s
Apparent Declination
-26° 39' 25"
Sunlit
Object is in daylight
Visualization observer readout
Local Sidereal Time
11:15:47
Azimuth
339.559° N
Elevation
-75.994°
Doppler factor
1
Orbital elements
Apogee altitude
556.87 km
Perigee altitude
438.831 km
Semi-major axis
6,875.987 km
Eccentricity
0.00858
Inclination
64.7555°
RAAN
173.3081°
Arg. of periapsis
189.5439°
True anomaly
Unknown
Mean anomaly
170.4063°
Eccentric anomaly
Unknown
Mean motion
3.80663 °/min
Orbital period
94.57 mins
BSTAR
0.00067838
Loading maneuver chart data...
Loading SW <> Apogee altitude chart data...
Loading historical data...
Loading historical data...
Loading historical data...
Loading historical data...
Loading historical data...
Loading historical data...
Loading historical data...

SNAP-3 EDDIE Visibility forecast

Observer location: undefined°, undefined°

Span
Click to sort rows by Start time (UTC) header in descending order
Start Az.
Max El. time (UTC)
Max El. Az.
Max El.
End time (UTC)
End Az.
6 mins2025-07-06 00:10:27.718Z168.329° S2025-07-06 00:13:27.718Z115.722° SE24.108°2025-07-06 00:16:27.718Z60.363° ENE
5 mins2025-07-06 01:48:27.718Z261.382° W2025-07-06 01:50:27.718Z301.214° NW24.761°2025-07-06 01:53:27.718Z2.797° NNE
5 mins2025-07-06 10:04:27.718Z309.962° NW2025-07-06 10:06:27.718Z233.537° WSW38.859°2025-07-06 10:09:27.718Z165.143° S
|